TimeCST,TemperatureF,Dew PointF,Humidity,Sea Level PressureIn,VisibilityMPH,Wind Direction,Wind SpeedMPH,Gust SpeedMPH,PrecipitationIn,Events,Conditions,WindDirDegrees,DateUTC
12:54 AM,16.0,9.0,74,30.27,9.0,SW,3.5,-,N/A,,Clear,220,2013-01-02 06:54:00
1:54 AM,17.1,9.0,71,30.27,9.0,Calm,Calm,-,N/A,,Clear,0,2013-01-02 07:54:00
2:54 AM,16.0,9.0,74,30.26,7.0,WSW,3.5,-,N/A,,Clear,240,2013-01-02 08:54:00
3:54 AM,16.0,10.0,77,30.25,8.0,Calm,Calm,-,N/A,,Clear,0,2013-01-02 09:54:00
4:54 AM,15.1,10.0,80,30.23,7.0,SSW,5.8,-,N/A,,Clear,210,2013-01-02 10:54:00
5:54 AM,16.0,10.9,81,30.23,7.0,Calm,Calm,-,N/A,,Clear,0,2013-01-02 11:54:00
6:54 AM,17.1,12.0,81,30.22,6.0,Calm,Calm,-,N/A,,Haze,0,2013-01-02 12:54:00
7:54 AM,17.1,12.0,81,30.21,5.0,SW,3.5,-,N/A,,Haze,220,2013-01-02 13:54:00
8:54 AM,21.0,15.1,78,30.20,6.0,SSW,6.9,-,N/A,,Haze,200,2013-01-02 14:54:00
9:54 AM,27.0,18.0,69,30.20,10.0,SSW,4.6,-,N/A,,Clear,200,2013-01-02 15:54:00
10:54 AM,30.9,21.0,67,30.21,10.0,SW,13.8,-,N/A,,Clear,230,2013-01-02 16:54:00
11:54 AM,32.0,21.9,66,30.19,10.0,SW,8.1,-,N/A,,Clear,230,2013-01-02 17:54:00
12:54 PM,33.1,21.0,61,30.16,10.0,WSW,11.5,-,N/A,,Clear,240,2013-01-02 18:54:00
1:54 PM,34.0,21.9,61,30.14,10.0,SW,10.4,-,N/A,,Clear,220,2013-01-02 19:54:00
2:54 PM,34.0,21.9,61,30.14,10.0,West,11.5,-,N/A,,Mostly Cloudy,260,2013-01-02 20:54:00
3:54 PM,34.0,21.0,59,30.16,10.0,WSW,11.5,16.1,N/A,,Mostly Cloudy,240,2013-01-02 21:54:00
4:54 PM,32.0,21.0,64,30.17,9.0,SW,8.1,-,N/A,,Scattered Clouds,230,2013-01-02 22:54:00
5:54 PM,32.0,19.9,61,30.21,10.0,WSW,5.8,-,N/A,,Overcast,250,2013-01-02 23:54:00
6:09 PM,32.0,19.4,60,30.19,10.0,West,5.8,-,N/A,,Overcast,280,2013-01-03 00:09:00
6:44 PM,30.2,19.4,64,30.19,10.0,NW,3.5,-,N/A,,Mostly Cloudy,310,2013-01-03 00:44:00
6:54 PM,30.0,19.0,64,30.22,10.0,WNW,4.6,-,N/A,,Mostly Cloudy,300,2013-01-03 00:54:00
7:54 PM,28.0,18.0,66,30.24,10.0,West,4.6,-,N/A,,Clear,260,2013-01-03 01:54:00
8:54 PM,28.0,19.0,69,30.25,10.0,WSW,4.6,-,N/A,,Overcast,250,2013-01-03 02:54:00
9:54 PM,28.0,19.9,72,30.26,10.0,SW,4.6,-,N/A,,Overcast,220,2013-01-03 03:54:00
10:54 PM,28.0,19.9,72,30.27,9.0,WSW,4.6,-,N/A,,Overcast,240,2013-01-03 04:54:00
11:54 PM,28.9,21.0,72,30.28,8.0,SW,3.5,-,N/A,,Overcast,220,2013-01-03 05:54:00